Starlink 32161

operational
NORAD ID: 60593 Int'l Des: 2024-150 Owner: SPXS Country: US Constellation: starlink
LEOCIRCULAR

About Starlink 32161

Description loading...

Live Position

Loading 3D Globe...

Upcoming Passes

Altitude History

Altitude vs Time

uPlot chart will show altitude changes over time

Two-Line Element Set

1 60593U 24150L 25304.95805812 .00001055 00000-0 47758-4 0 9993
2 60593 53.1599 184.8528 0001257 92.4884 267.6261 15.30186638 68255
Epoch: Oct 31, 2025 • Age: 42 hours

Current Status

Altitude 478.0 km
Velocity 7.63 km/s
Sub-Earth Point -8.80°S, 131.23°W
Launch Date Aug 20, 2024
Age 1.2 years
Type internet

Technical Details

Classification Payload
Mass 730.00 kg
Dry Mass 700.00 kg
Total Mass 730.00 kg
Length 0.30 m
Diameter 4.10 m
Span 29.00 m
Shape Box + pan
Manufacturer SPXS
Bus Type Starlink V2M
Phase Status In Orbit
Owner/State SPXS/US

Large Constellations

Loading constellations...